This demonstration page uses our WeatherBlox Daily Observations layout. Learn more.

36.17497, -115.13722

Hourly Observations for June 10, 2020

Temp ( °F °C ) Dew Point ( °F °C ) Humidity (%) Winds ( mph kmh ) Pressure ( in mb ) Visibility ( mi km ) Precip ( " mm )
12:53 am 00:53 Clear 74 23.3 26 -3.3 17 17 WNW 6 9 30.04 1017 10 16.0934 0 0
1:53 am 01:53 Clear 72 22.2 25 -3.9 17 17 WNW 6 9 30.04 1017 10 16.0934 0 0
2:53 am 02:53 Clear 70 21.1 24 -4.4 18 18 SE 3 6 30.04 1017 10 16.0934 0 0
3:53 am 03:53 Clear 73 22.8 22 -5.6 15 15 WNW 3 6 30.04 1017 10 16.0934 0 0
4:53 am 04:53 Clear 70 21.1 28 -2.2 21 21 WNW 8 13 30.04 1017 10 16.0934 0 0
5:53 am 05:53 Sunny 70 21.1 24 -4.4 18 18 WNW 5 7 30.06 1018 10 16.0934 0 0
6:53 am 06:53 Sunny 74 23.3 26 -3.3 17 17 SW 5 7 30.07 1018 10 16.0934 0 0
7:53 am 07:53 Sunny 79 26.1 25 -3.9 14 14 Calm 30.08 1019 10 16.0934 0 0
8:53 am 08:53 Sunny 82 27.8 23 -5 11 11 Calm 30.08 1019 10 16.0934 0 0
9:53 am 09:53 Sunny 87 30.6 25 -3.9 10 10 VRB 5 7 30.06 1018 10 16.0934 0 0
10:53 am 10:53 Sunny 90 32.2 25 -3.9 9 9 E 9 15 30.05 1018 10 16.0934 0 0
11:53 am 11:53 Sunny 92 33.3 25 -3.9 9 9 E 10 17 30.04 1017 10 16.0934 0 0
12:53 pm 12:53 Sunny 93 33.9 24 -4.4 8 8 VRB 3 6 30.02 1017 10 16.0934 0 0
1:53 pm 13:53 Sunny 94 34.4 24 -4.4 8 8 Calm 30 1016 10 16.0934 0 0
2:53 pm 14:53 Sunny 96 35.6 24 -4.4 7 7 VRB 3 6 29.98 1015 10 16.0934 0 0
3:53 pm 15:53 Sunny 96 35.6 22 -5.6 7 7 ESE 7 11 29.95 1014 10 16.0934 0 0
4:53 pm 16:53 Sunny 95 35 21 -6.1 7 7 SE 3 6 29.94 1014 10 16.0934 0 0
5:53 pm 17:53 Sunny 97 36.1 20 -6.7 6 6 NNW 5 7 29.92 1013 10 16.0934 0 0
6:53 pm 18:53 Sunny 95 35 19 -7.2 6 6 ENE 5 7 29.91 1013 10 16.0934 0 0
7:53 pm 19:53 Sunny 93 33.9 19 -7.2 7 7 E 3 6 29.91 1013 10 16.0934 0 0
8:53 pm 20:53 Clear 90 32.2 21 -6.1 8 8 E 3 6 29.92 1013 10 16.0934 0 0
9:53 pm 21:53 Clear 87 30.6 28 -2.2 12 12 WNW 7 11 29.94 1014 10 16.0934 0 0
10:53 pm 22:53 Clear 83 28.3 29 -1.7 14 14 WNW 6 9 29.95 1014 10 16.0934 0 0
11:53 pm 23:53 Clear 80 26.7 28 -2.2 15 15 Calm 29.95 1014 10 16.0934 0 0

Powered by AerisWeather